To NAV CANADA Home Page Login to a new session Search on AWWS site Feedback and Comments Disclaimer Vers la page française équivalente Tips FAQ What's new on the site To the Forecasts and Observations / NOTAM section To "File a Flight Plan" website Publications and other links Update of the User's profile FIC Telephone Numbers My Weather Data Folder Route Weather Data Regional Weather Data Local Weather Data To the Forecasts and Observations / NOTAM section
Request Generated 02/14/2016 at 05:39:40 UTC . Weather information available at that time is displayed.

METAR/TAF

NAUJAAT/NU    

LWIS CYUT 140500Z AUTO 36004KT M36/M40 A3010=
LWIS CYUT 140400Z AUTO 35003KT M35/M39 A3011=
LWIS CYUT 140300Z AUTO 00000KT M35/M39 A3012=

*** REMARK        : Forecast period has ended; this was the last TAF issued
*** REMARQUE : La période de prévision est échue; ceci était le dernier TAF qui a été émis
TAF CYUT 131639Z 1317/1321 36008KT P6SM FEW080
RMK NXT FCST WILL BE ISSUED AT 141645Z=
Your time UTC time
Weather data provided by Environment Canada and NAV CANADA